Location: Newark
(37.7733°N, 97.7642°W)
Time: 12:43:54
(UTC+00:00)

ISS - Pass Details

Date: 26 July 2019
Orbit: 410 x 420 km, 51.6° (Epoch: 19 August)

Event Time Altitude Azimuth Distance (km) Brightness Sun altitude
Rises 05:15:00 0° 320° (NW) 2,367 1.1 -29.5°
Reaches altitude 10° 05:17:43 10° 343° (NNW) 1,498 0.0 -29.7°
Enters shadow 05:18:45 14° 359° (N) 1,282 -0.6 -29.8°
